This demonstration page uses our WeatherBlox Daily Observations layout. Learn more.

Left ArrowRight Arrow

38.88101, -77.10428

Hourly Observations for July 23, 2020

Temp ( °F °C ) Dew Point ( °F °C ) Humidity (%) Winds ( mph kmh ) Pressure ( in mb ) Visibility ( mi km ) Precip ( " mm )
12:52 am 00:52 Mostly Cloudy 75 23.9 72 22.2 90 90 WSW 7 11 30.06 1018 10 16.0934 0 0
1:52 am 01:52 Mostly Cloudy 75 23.9 72 22.2 90 90 SW 5 7 30.06 1018 10 16.0934 0 0
2:34 am 02:34 Cloudy 75 23.9 73 22.8 94 94 SW 5 7 30.05 1018 10 16.0934 0 0
2:52 am 02:52 Mostly Cloudy 75 23.9 73 22.8 94 94 SW 6 9 30.05 1018 10 16.0934 0 0
3:12 am 03:12 Partly Cloudy 75 23.9 73 22.8 94 94 SW 5 7 30.05 1018 10 16.0934 0 0
3:52 am 03:52 Partly Cloudy 75 23.9 72 22.2 90 90 WSW 5 7 30.05 1018 10 16.0934 0 0
4:52 am 04:52 Mostly Cloudy 75 23.9 72 22.2 90 90 SSW 5 7 30.04 1017 10 16.0934 0 0
5:52 am 05:52 Mostly Cloudy 76 24.4 72 22.2 88 88 S 8 13 30.05 1018 10 16.0934 0 0
6:52 am 06:52 Mostly Cloudy 75 23.9 72 22.2 90 90 SW 3 6 30.06 1018 10 16.0934 0 0
7:52 am 07:52 Mostly Cloudy 76 24.4 72 22.2 88 88 SSW 7 11 30.08 1019 10 16.0934 0 0
8:52 am 08:52 Mostly Cloudy 79 26.1 72 22.2 79 79 SSW 6 9 30.09 1019 10 16.0934 0 0
9:52 am 09:52 Mostly Cloudy 81 27.2 72 22.2 74 74 VRB 3 6 30.09 1019 10 16.0934 0 0
10:52 am 10:52 Mostly Cloudy 84 28.9 74 23.3 72 72 SW 5 7 30.09 1019 10 16.0934 0 0
11:52 am 11:52 Mostly Cloudy 84 28.9 75 23.9 74 74 SSE 8 13 30.08 1019 10 16.0934 0 0
12:52 pm 12:52 Mostly Cloudy 87 30.6 75 23.9 67 67 S 9 15 30.07 1018 10 16.0934 0 0
1:52 pm 13:52 Mostly Cloudy 90 32.2 73 22.8 58 58 S 10 17 30.06 1018 10 16.0934 0 0
2:52 pm 14:52 Mostly Cloudy 91 32.8 72 22.2 54 54 S 9 15 30.04 1017 10 16.0934 0 0
3:52 pm 15:52 Mostly Cloudy 92 33.3 72 22.2 52 52 S 8 13 30 1016 10 16.0934 0 0
4:52 pm 16:52 Mostly Cloudy 92 33.3 73 22.8 54 54 S 12 19 30 1016 10 16.0934 0 0
5:52 pm 17:52 Mostly Cloudy 91 32.8 72 22.2 54 54 S 13 20 30.01 1016 10 16.0934 0 0
6:52 pm 18:52 Cloudy 89 31.7 74 23.3 61 61 S 7 11 30.01 1016 10 16.0934 0 0
7:52 pm 19:52 Cloudy 89 31.7 74 23.3 61 61 SSE 6 9 30.01 1016 10 16.0934 0 0
8:09 pm 20:09 Cloudy with Nearby Thunderstorms 88 31.1 74 23.3 63 63 SSE 7 11 30.01 1016 10 16.0934 0 0
8:43 pm 20:43 Cloudy with Light Thunderstorms 84 28.9 72 22.2 67 67 SE 8 13 30.01 1016 10 16.0934 0.001 0.001
8:52 pm 20:52 Windy with Storms Likely 78 25.6 72 22.2 82 82 SW 28 44 30.06 1018 2 3.21868 0.03 0.762
9:29 pm 21:29 Cloudy with Light Thunderstorms 73 22.8 71 21.7 94 94 Calm 30.09 1019 3 4.82802 1.79 45.466
9:47 pm 21:47 Cloudy with Nearby Thunderstorms 73 23 70 21 89 89 SE 14 22 30.1 1019 10 16.0934 1.8 45.72
9:52 pm 21:52 Cloudy with Light Rain 74 23.3 70 21.1 88 88 SSE 12 19 30.1 1019 10 16.0934 1.8 45.72
9:56 pm 21:56 Cloudy with Light Rain 74 23.3 70 21.1 88 88 S 13 20 30.1 1019 10 16.0934 0.001 0.001
10:17 pm 22:17 Mostly Cloudy with Nearby Thunderstorms 75 23.9 72 22.2 90 90 SW 8 13 30.09 1019 10 16.0934 0.001 0.001
10:38 pm 22:38 Cloudy with Thunderstorms 75 23.9 71 21.7 88 88 W 9 15 30.08 1019 10 16.0934 0.001 0.001
10:52 pm 22:52 Cloudy with Light Thunderstorms 75 23.9 71 21.7 88 88 W 12 19 30.06 1018 10 16.0934 0.01 0.254
11:09 pm 23:09 Cloudy with Light Rain 75 23.9 71 21.7 88 88 Calm 30.06 1018 10 16.0934 0.001 0.001
11:52 pm 23:52 Cloudy with Light Rain 75 23.9 71 21.7 88 88 WSW 3 6 30.05 1018 10 16.0934 0.05 1.27

Powered by AerisWeather